Location: Tilkisivrisi Tepesi
(38.7333°N, 32.2500°E)
Time: 00:16:27
(UTC+00:00)

Daily predictions for brighter satellites

Satellite Brightness Start Highest point End
(mag) Time Altitude Azimuth Time Altitude Azimuth Time Altitude Azimuth
USA 229 DEB 4.0 00:03:09 29° SSE 00:05:44 46° ESE 00:11:46 10° NE
USA 229 4.1 00:03:10 28° SSE 00:05:47 45° ESE 00:11:47 10° NE
Cosmos 332 Rocket 4.3 00:13:12 30° SSE 00:15:18 53° ESE 00:19:55 10° NNE
SJ 16-02 1.9 00:17:38 35° W 00:18:29 40° WNW 00:22:29 10° N
Envisat 3.2 00:13:52 10° NNE 00:18:55 64° ESE 00:21:42 26° S
Cosmos 1378 Rocket 4.0 00:18:51 37° WSW 00:19:34 41° WNW 00:23:37 10° N
CZ-2D R/B 3.0 00:15:25 10° NNE 00:20:37 46° E 00:24:30 17° SSE
Cosmos 371 Rocket 4.4 00:19:24 27° W 00:20:50 32° WNW 00:25:09 10° N
Cosmos 407 Rocket 4.3 00:20:35 29° WSW 00:22:19 37° WNW 00:27:03 10° N
Cosmos 2297 Rocket 3.0 00:18:44 10° NNW 00:24:17 53° ENE 00:29:47 10° SE
FENGYUN 3A 4.1 00:19:44 10° N 00:24:50 46° WNW 00:27:03 30° SW
OPS 8737 4.0 00:23:53 10° NW 00:26:58 85° WSW 00:28:08 36° SSE
Cosmos 540 Rocket 3.5 00:23:28 10° NNW 00:28:26 56° WSW 00:30:56 28° S
Cosmos 2292 Rocket 3.3 00:27:39 36° SE 00:28:30 51° E 00:31:42 10° NNE
SL-24 DEB 4.0 00:29:27 29° S 00:31:39 80° W 00:36:06 10° N
MOZ.5/SAFIR/RUBIN 5/SL-8 3.6 00:30:41 19° SSE 00:33:58 87° W 00:38:35 10° NNW
Cosmos 1980 Rocket 3.9 00:29:36 10° SSE 00:34:15 27° ESE 00:38:55 10° NE
Okean 2 Rocket 2.9 00:31:50 10° N 00:36:12 86° W 00:39:03 21° S
Cosmos 1190 Rocket 4.1 00:37:15 29° SW 00:39:54 63° WNW 00:45:06 10° NNE
ALOS 2.4 00:35:59 10° NNE 00:40:32 71° ESE 00:43:34 21° S
Cosmos 1727 Rocket 4.1 00:35:56 17° S 00:40:53 80° E 00:47:06 10° N
Cosmos 1954 Rocket 3.9 00:38:11 28° SSW 00:40:56 74° WNW 00:46:06 10° NNE
Dummy Sat-02 4.4 00:38:04 10° N 00:41:40 71° W 00:43:12 32° SSW
USA 234 4.2 00:36:25 10° ENE 00:42:25 38° SE 00:47:14 15° S
Cosmos 546 4.4 00:39:52 10° NW 00:43:39 87° SW 00:47:25 10° SE
Cosmos 2151 Rocket 3.9 00:41:10 10° NNW 00:45:29 47° W 00:47:36 26° SSW
NOSS 2-2 (C) 3.8 00:42:02 10° NW 00:46:10 61° WSW 00:51:57 10° SSE
IDEFIX/ARIANE 42P 4.3 00:50:07 10° NNW 00:53:41 19° WNW 00:56:16 14° W
Cosmos 2221 Rocket 4.0 00:53:45 24° SW 00:56:06 47° W 01:00:29 10° N
Cosmos 1862 3.5 00:53:39 16° S 00:56:20 58° E 00:59:50 10° NNE
SL-16 R/B 4.4 00:58:19 10° SE 01:03:42 33° ENE 01:09:05 10° N
Cosmos 2228 3.7 01:00:11 10° N 01:04:20 54° E 01:08:28 10° SSE
ADEOS II 2.1 01:00:07 10° NNE 01:05:23 87° ESE 01:10:14 12° SSW
Cosmos 2251 Rocket 4.4 01:02:10 19° WSW 01:05:26 36° WNW 01:10:23 10° N
Cosmos 2100 Rocket 4.1 00:59:35 10° N 01:05:52 78° E 01:12:02 10° S
Okean 1 Rocket 3.6 01:03:50 10° NNW 01:07:51 39° W 01:10:45 17° SSW
METEOR-M 4.3 01:04:22 10° NNE 01:09:44 73° ESE 01:15:02 10° S
H-2A R/B 2.1 01:07:15 10° N 01:12:24 62° WNW 01:16:43 14° SSW
Sich 1 Rocket 4.1 01:09:59 10° NNW 01:14:15 41° W 01:18:00 13° SSW
Cosmos 292 Rocket 3.8 01:13:16 16° SSW 01:17:00 63° WNW 01:21:43 10° NNE
Cosmos 1782 2.5 01:14:03 10° NNW 01:17:31 58° W 01:20:56 10° S
ATLAS 3B R/B 3.1 01:13:45 15° SW 01:20:20 78° WNW 01:28:15 10° NNE
Cosmos 1975 Rocket 2.9 01:16:53 10° S 01:21:08 80° W 01:25:26 10° N
Resurs 1-4 Rocket 2.7 01:16:53 10° N 01:21:50 43° WNW 01:26:11 13° SW
Lacrosse 5 rocket 3.6 01:19:14 10° NNW 01:22:02 23° NE 01:24:45 10° E
Cosmos 1437 Rocket 2.3 01:19:18 10° N 01:22:45 88° WSW 01:26:07 10° S
Delta 2 Rocket 3.1 01:22:59 19° SW 01:24:31 34° S 01:27:03 10° ESE
Cosmos 1697 Rocket 3.3 01:27:24 13° SW 01:32:08 41° WNW 01:37:26 10° N
Cosmos 1802 Rocket 4.2 01:27:12 10° N 01:33:38 86° E 01:40:04 10° S
Cosmos 2227 Rocket 2.3 01:32:34 10° NNW 01:38:15 86° ENE 01:43:52 10° SSE
SeaSat 1 2.5 01:37:48 10° SSE 01:42:35 56° WSW 01:47:24 10° NW
NOSS 2-2 (E) 3.9 01:38:52 10° NW 01:42:59 59° WSW 01:48:44 10° SSE
H-2A R/B 2.8 01:41:13 10° S 01:44:49 40° W 01:48:31 10° NNW
CENTAUR R/B 3.4 01:37:43 10° NW 01:46:23 68° WSW 01:55:50 10° SSE
Cosmos 1933 4.0 01:44:08 10° N 01:47:52 54° E 01:51:34 10° SSE
Cosmos 1741 Rocket 4.1 01:42:38 10° SSW 01:47:54 74° WNW 01:53:14 10° NNE
NOSS 3 (A) 3.5 01:51:54 10° SSW 01:53:50 62° ESE 01:55:30 10° NE
Cosmos 1850 Rocket 4.2 01:51:31 10° SSW 01:56:34 57° WNW 02:01:39 10° N
